Simultaneous Nadir Overpasses (SNOs) Predictions

Prediction of SNOs between GOES-14 and NOAA-20 Satellite Orbit:

Table of predicted SNOs for the next 14.0 days since TLE Epoch: 12/9/2023
Index Date Time (GOES-14) GOES-14 Lat,Lon NOAA-20 Lat,Lon Distance(km) Time Diff (sec)
1 12/10/2023 08:49:33 -0.06,-108.63 0.52,-111.35 308.70 80
2 12/11/2023 08:33:27 -0.04,-108.63 -0.44,-106.80 207.85 80
3 12/12/2023 20:52:44 0.06,-108.60 -0.75,-112.11 400.22 80
4 12/13/2023 20:36:39 0.04,-108.60 0.27,-107.58 115.94 80
5 12/15/2023 08:55:48 -0.06,-108.61 0.87,-112.85 483.21 80
6 12/16/2023 08:39:42 -0.05,-108.60 -0.09,-108.31 32.89 80
7 12/18/2023 20:40:14 0.06,-108.57 -0.06,-109.09 59.32 80
8 12/19/2023 20:24:09 0.05,-108.56 0.97,-104.56 456.90 80
9 12/21/2023 08:43:17 -0.06,-108.58 0.23,-109.82 141.87 80
10 12/22/2023 08:27:12 -0.06,-108.58 -0.80,-105.30 374.45 80
